Frisco, NC

1:29 PM EDT on August 31, 2016 (GMT -0400)
Mitchell

Weather History for KHSE - January, 2011

Change the Weather History Date:

Monday, January 31, 2011

  Actual Average Record
Temperature  
Mean Temperature 50 °F 46 °F  
Max Temperature 53 °F 52 °F 71 °F (1975)
Min Temperature 46 °F 39 °F 20 °F (1966)
Degree Days  
Heating Degree Days 15 19  
Month to date heating degree days 705 610  
Since 1 July heating degree days 1725 1413  
Cooling Degree Days 0 0  
Month to date cooling degree days 0 0  
Year to date cooling degree days 0 0  
Moisture  
Dew Point 44 °F    
Average Humidity 80    
Maximum Humidity 93    
Minimum Humidity 66    
Precipitation  
Precipitation 0.38 in 0.16 in 3.26 in (1960)
Month to date precipitation 4.71 5.24  
Year to date precipitation 4.71 5.24  
Snow  
Snow 0.00 in - - ()
Month to date snowfall 6.0  
Since 1 July snowfall 6.0  
Snow Depth 0.00 in    
Sea Level Pressure  
Sea Level Pressure 30.24 in    
Wind  
Wind Speed 11 mph (NE)    
Max Wind Speed 17 mph    
Max Gust Speed 30 mph    
Visibility 7 miles    
Events Rain    
T = Trace of Precipitation, MM = Missing Value Source: NWS Daily Summary

Daily Weather History Graph

Daily Weather History Graph

Search for Another Location

Airport or City:

Trip Planner

Search our weather history database for the weather conditions in past years. The results will help you decide how hot, cold, wet, or windy it might be!

Date:

Astronomy

Jan. 31, 2011 Rise Set
Actual Time 7:02 AM EST 5:29 PM EST
Civil Twilight 6:35 AM EST 5:56 PM EST
Nautical Twilight 6:05 AM EST 6:26 PM EST
Astronomical Twilight 5:35 AM EST 6:56 PM EST
Moon 5:15 AM EST 3:24 PM EST
Length of Visible Light 11h 20m
Length of Day
10h 26m
Waning Crescent, 6% of the Moon is Illuminated
Jan 31
Waning Crescent
Feb 2
New
Feb 11
First Quarter
Feb 18
Full
Feb 24
Last Quarter

Hourly Weather History & Observations

Time (EST) Temp. Windchill Dew Point Humidity Pressure Visibility Wind Dir Wind Speed Gust Speed Precip Events Conditions
12:51 AM 48.9 °F - 45.0 °F 86% 30.19 in 10.0 mi NE 9.2 mph 17.3 mph N/A   Clear
1:51 AM 48.9 °F - 44.1 °F 83% 30.20 in 10.0 mi NE 9.2 mph - N/A   Clear
2:51 AM 48.9 °F - 44.1 °F 83% 30.20 in 10.0 mi ENE 12.7 mph 18.4 mph N/A   Clear
3:51 AM 48.0 °F - 43.0 °F 83% 30.20 in 10.0 mi NE 10.4 mph 20.7 mph N/A   Clear
4:51 AM 48.0 °F - 43.0 °F 83% 30.21 in 10.0 mi ENE 11.5 mph 20.7 mph N/A   Clear
5:51 AM 48.0 °F - 42.1 °F 80% 30.22 in 10.0 mi ENE 12.7 mph 24.2 mph N/A   Clear
6:51 AM 48.0 °F - 42.1 °F 80% 30.25 in 10.0 mi NE 10.4 mph 20.7 mph N/A   Clear
7:51 AM 48.9 °F - 42.1 °F 77% 30.26 in 10.0 mi ENE 12.7 mph 20.7 mph N/A   Partly Cloudy
8:44 AM 50.0 °F - 42.8 °F 76% 30.27 in 10.0 mi ENE 15.0 mph 25.3 mph N/A   Mostly Cloudy
8:51 AM 50.0 °F - 42.1 °F 74% 30.27 in 10.0 mi ENE 12.7 mph 23.0 mph N/A   Mostly Cloudy
9:51 AM 52.0 °F - 42.1 °F 69% 30.28 in 10.0 mi ENE 15.0 mph 26.5 mph N/A   Overcast
10:51 AM 53.1 °F - 43.0 °F 69% 30.29 in 10.0 mi NE 12.7 mph 25.3 mph N/A   Overcast
11:51 AM 52.0 °F - 43.0 °F 71% 30.27 in 10.0 mi NE 12.7 mph 24.2 mph N/A   Overcast
12:51 PM 52.0 °F - 43.0 °F 71% 30.25 in 10.0 mi NE 11.5 mph 25.3 mph N/A   Overcast
1:51 PM 52.0 °F - 43.0 °F 71% 30.23 in 10.0 mi NE 11.5 mph 24.2 mph N/A   Overcast
2:16 PM 51.8 °F - 42.8 °F 71% 30.23 in 10.0 mi NE 11.5 mph 23.0 mph N/A   Overcast
2:51 PM 50.0 °F - 43.0 °F 77% 30.24 in 8.0 mi NE 11.5 mph - 0.00 in Rain Light Rain
3:18 PM 50.0 °F - 44.6 °F 82% 30.22 in 4.0 mi ENE 11.5 mph 24.2 mph 0.01 in Rain Rain
3:51 PM 48.9 °F - 45.0 °F 86% 30.24 in 4.0 mi ENE 10.4 mph 21.9 mph 0.04 in Rain Light Rain
4:27 PM 48.2 °F - 44.6 °F 87% 30.23 in 2.5 mi NE 10.4 mph 17.3 mph 0.08 in Rain Rain
4:42 PM 48.2 °F - 46.4 °F 93% 30.24 in 3.0 mi NE 9.2 mph 18.4 mph 0.11 in Rain Rain
4:51 PM 50.0 °F - 46.0 °F 86% 30.24 in 2.5 mi NE 9.2 mph 18.4 mph 0.13 in Rain Rain
5:02 PM 50.0 °F - 46.4 °F 87% 30.24 in 3.0 mi NE 10.4 mph 19.6 mph 0.02 in Rain Rain
5:09 PM 50.0 °F - 46.4 °F 87% 30.23 in 2.5 mi ENE 9.2 mph 19.6 mph 0.04 in Rain Rain
5:31 PM 51.8 °F - 46.4 °F 82% 30.23 in 4.0 mi NE 8.1 mph 16.1 mph 0.09 in Rain Rain
5:51 PM 51.1 °F - 46.9 °F 86% 30.23 in 4.0 mi ENE 12.7 mph 21.9 mph 0.15 in Rain Rain
6:51 PM 50.0 °F - 46.9 °F 89% 30.24 in 5.0 mi NE 10.4 mph 18.4 mph 0.06 in Rain Light Rain
7:51 PM 50.0 °F - 46.9 °F 89% 30.24 in 6.0 mi NE 10.4 mph 16.1 mph 0.00 in   Overcast
8:51 PM 50.0 °F - 46.9 °F 89% 30.23 in 5.0 mi ENE 4.6 mph - N/A   Mostly Cloudy
9:51 PM 48.0 °F - 45.0 °F 89% 30.23 in 5.0 mi North 4.6 mph - N/A   Mostly Cloudy
10:07 PM 48.2 °F - 44.6 °F 87% 30.24 in 5.0 mi North 4.6 mph - N/A   Overcast
10:16 PM 46.4 °F 44.3 °F 44.6 °F 93% 30.24 in 5.0 mi North 4.6 mph - N/A   Overcast
10:51 PM 46.9 °F - 44.1 °F 90% 30.23 in 5.0 mi North 6.9 mph - N/A   Overcast
11:04 PM 46.4 °F 42.9 °F 44.6 °F 93% 30.23 in 5.0 mi North 6.9 mph - N/A   Overcast
11:42 PM 46.4 °F 42.9 °F 44.6 °F 93% 30.24 in 5.0 mi Variable 6.9 mph - N/A   Overcast
11:49 PM 46.4 °F 42.9 °F 42.8 °F 87% 30.24 in 6.0 mi North 6.9 mph - N/A   Overcast
11:51 PM 46.0 °F 42.5 °F 43.0 °F 89% 30.25 in 6.0 mi Variable 6.9 mph - N/A   Overcast